Time,TemperatureF,DewpointF,PressureIn,WindDirection,WindDirectionDegrees,WindSpeedMPH,WindSpeedGustMPH,Humidity,HourlyPrecipIn,Conditions,Clouds,dailyrainin,SoftwareType,DateUTC
2013-12-10 00:01:00,39.7,39.2,30.05,ESE,103,1.2,0.0,98,0.00,RA,,0.00,WeatherDisplay:10.37,2013-12-10 05:01:00,
2013-12-10 00:02:00,39.7,39.2,30.05,ESE,103,0.0,0.0,98,0.00,RA,,0.00,WeatherDisplay:10.37,2013-12-10 05:02:00,
2013-12-10 00:07:00,39.6,39.1,30.04,East,101,0.0,0.0,98,0.00,RA,,0.00,WeatherDisplay:10.37,2013-12-10 05:07:00,
2013-12-10 00:12:00,39.5,39.0,30.05,East,101,0.0,0.0,98,0.00,,,0.00,WeatherDisplay:10.37,2013-12-10 05:12:00,
2013-12-10 00:17:00,39.5,39.0,30.03,ESE,102,1.2,1.2,98,0.00,,,0.00,WeatherDisplay:10.37,2013-12-10 05:17:00,
2013-12-10 00:22:00,39.5,39.0,30.04,ESE,102,1.2,1.2,98,0.00,,,0.00,WeatherDisplay:10.37,2013-12-10 05:22:00,
2013-12-10 00:27:00,39.5,39.0,30.03,ESE,102,0.0,0.0,98,0.00,,,0.00,WeatherDisplay:10.37,2013-12-10 05:27:00,
2013-12-10 00:32:00,39.7,39.2,30.04,ESE,102,0.0,0.0,98,0.00,,,0.00,WeatherDisplay:10.37,2013-12-10 05:32:00,
2013-12-10 00:37:00,39.8,39.3,30.02,ESE,102,1.2,1.2,98,0.00,,,0.00,WeatherDisplay:10.37,2013-12-10 05:37:00,
2013-12-10 00:42:00,39.8,39.3,30.01,East,101,2.3,2.3,98,0.00,,,0.00,WeatherDisplay:10.37,2013-12-10 05:42:00,
2013-12-10 00:47:00,39.8,39.3,30.01,ESE,118,0.0,0.1,98,0.00,,,0.00,WeatherDisplay:10.37,2013-12-10 05:47:00,
2013-12-10 00:52:00,39.9,39.4,30.00,ESE,112,1.2,1.2,98,0.00,,,0.00,WeatherDisplay:10.37,2013-12-10 05:52:00,
2013-12-10 00:57:00,40.2,39.7,30.00,East,92,1.2,1.2,98,0.00,,,0.00,WeatherDisplay:10.37,2013-12-10 05:57:00,
2013-12-10 01:02:00,40.1,39.6,30.01,ESE,104,2.3,2.3,98,0.00,,,0.00,WeatherDisplay:10.37,2013-12-10 06:02:00,
2013-12-10 01:07:00,40.1,39.6,30.01,East,82,1.2,1.2,98,0.00,,,0.00,WeatherDisplay:10.37,2013-12-10 06:07:00,
2013-12-10 01:12:00,40.1,39.6,30.00,East,82,1.0,1.0,98,0.00,,,0.00,WeatherDisplay:10.37,2013-12-10 06:12:00,
2013-12-10 01:17:00,40.3,39.8,30.00,NE,36,1.2,1.2,98,0.00,,,0.00,WeatherDisplay:10.37,2013-12-10 06:17:00,
2013-12-10 01:22:00,40.6,40.3,30.00,East,88,2.0,2.0,99,0.00,,,0.01,WeatherDisplay:10.37,2013-12-10 06:22:00,
2013-12-10 01:27:00,40.8,40.5,30.01,ENE,75,2.3,2.3,99,0.01,RA,,0.01,WeatherDisplay:10.37,2013-12-10 06:27:00,
2013-12-10 01:32:00,40.9,40.6,30.04,WNW,298,3.5,3.5,99,0.01,RA,,0.01,WeatherDisplay:10.37,2013-12-10 06:32:00,
2013-12-10 01:37:00,41.0,40.7,30.05,West,271,3.5,3.5,99,0.01,,,0.01,WeatherDisplay:10.37,2013-12-10 06:37:00,
2013-12-10 01:42:00,41.2,40.9,30.07,WSW,257,3.5,3.5,99,0.01,,,0.01,WeatherDisplay:10.37,2013-12-10 06:42:00,
2013-12-10 01:47:00,41.3,41.0,30.09,West,278,3.5,3.5,99,0.01,,,0.01,WeatherDisplay:10.37,2013-12-10 06:47:00,
2013-12-10 01:52:00,41.4,41.1,30.08,West,276,1.2,1.2,99,0.01,,,0.01,WeatherDisplay:10.37,2013-12-10 06:52:00,
2013-12-10 01:57:00,41.3,41.0,30.06,SE,135,2.3,2.3,99,0.01,,,0.01,WeatherDisplay:10.37,2013-12-10 06:57:00,
2013-12-10 02:03:00,41.4,41.1,30.04,SSE,162,2.3,2.3,99,0.01,,,0.01,WeatherDisplay:10.37,2013-12-10 07:03:00,
2013-12-10 02:08:00,41.4,41.1,30.02,ESE,118,3.5,3.5,99,0.01,,,0.01,WeatherDisplay:10.37,2013-12-10 07:08:00,
2013-12-10 02:13:00,41.4,41.1,30.03,SSE,157,1.2,1.2,99,0.01,,,0.01,WeatherDisplay:10.37,2013-12-10 07:13:00,
2013-12-10 02:18:00,41.3,41.0,30.03,SE,127,2.3,2.3,99,0.01,,,0.01,WeatherDisplay:10.37,2013-12-10 07:18:00,
2013-12-10 02:23:00,41.4,41.1,30.02,North,355,1.2,1.2,99,0.01,,,0.01,WeatherDisplay:10.37,2013-12-10 07:23:00,
2013-12-10 02:28:00,41.4,41.1,30.02,SSE,149,1.2,1.2,99,0.01,RA,,0.02,WeatherDisplay:10.37,2013-12-10 07:28:00,
2013-12-10 02:33:00,41.3,40.8,30.01,SSE,149,1.2,1.2,98,0.01,RA,,0.02,WeatherDisplay:10.37,2013-12-10 07:33:00,
2013-12-10 02:38:00,41.4,40.9,30.02,SSE,149,1.2,1.2,98,0.01,,,0.02,WeatherDisplay:10.37,2013-12-10 07:38:00,
2013-12-10 02:43:00,41.4,41.1,30.01,East,101,2.3,2.3,99,0.02,RA,,0.03,WeatherDisplay:10.37,2013-12-10 07:43:00,
2013-12-10 02:48:00,41.4,40.9,30.01,North,6,1.2,1.2,98,0.02,RA,,0.03,WeatherDisplay:10.37,2013-12-10 07:48:00,
2013-12-10 02:53:00,41.4,40.9,30.00,ENE,57,2.3,2.3,98,0.02,,,0.03,WeatherDisplay:10.37,2013-12-10 07:53:00,
2013-12-10 02:58:00,41.4,40.9,30.00,NE,56,1.2,0.0,98,0.02,,,0.03,WeatherDisplay:10.37,2013-12-10 07:58:00,
2013-12-10 03:03:00,41.3,40.8,29.99,ENE,64,1.2,1.2,98,0.03,RA,,0.04,WeatherDisplay:10.37,2013-12-10 08:03:00,
2013-12-10 03:08:00,41.3,40.8,30.00,ENE,63,0.0,0.0,98,0.03,RA,,0.04,WeatherDisplay:10.37,2013-12-10 08:08:00,
2013-12-10 03:13:00,41.3,40.8,30.01,ENE,63,0.0,0.0,98,0.03,,,0.04,WeatherDisplay:10.37,2013-12-10 08:13:00,
2013-12-10 03:18:00,41.3,40.8,30.01,ENE,63,0.0,0.0,98,0.04,RA,,0.05,WeatherDisplay:10.37,2013-12-10 08:18:00,
2013-12-10 03:23:00,41.3,40.8,30.01,ENE,61,0.0,0.0,98,0.06,RA,,0.07,WeatherDisplay:10.37,2013-12-10 08:23:00,
2013-12-10 03:28:00,41.3,40.8,30.00,ENE,61,0.0,0.0,98,0.06,RA,,0.08,WeatherDisplay:10.37,2013-12-10 08:28:00,
2013-12-10 03:33:00,41.3,40.8,29.99,ENE,61,0.0,0.0,98,0.07,RA,,0.09,WeatherDisplay:10.37,2013-12-10 08:33:00,
2013-12-10 03:38:00,41.3,40.8,30.00,NW,307,1.2,1.2,98,0.07,RA,,0.09,WeatherDisplay:10.37,2013-12-10 08:38:00,
2013-12-10 03:43:00,41.3,40.8,29.99,NW,308,0.0,0.0,98,0.06,,,0.09,WeatherDisplay:10.37,2013-12-10 08:43:00,
2013-12-10 03:48:00,41.3,40.8,29.99,NW,308,1.2,0.0,98,0.07,RA,,0.10,WeatherDisplay:10.37,2013-12-10 08:48:00,
2013-12-10 03:53:00,41.3,40.8,29.99,NW,308,0.0,0.0,98,0.07,RA,,0.10,WeatherDisplay:10.37,2013-12-10 08:53:00,
2013-12-10 03:58:00,41.3,41.0,30.00,West,280,0.0,0.0,99,0.07,,,0.10,WeatherDisplay:10.37,2013-12-10 08:58:00,
2013-12-10 04:03:00,41.3,41.0,29.99,West,280,0.0,0.0,99,0.07,RA,,0.11,WeatherDisplay:10.37,2013-12-10 09:03:00,
2013-12-10 04:04:00,41.3,41.0,29.99,West,280,0.0,0.0,99,0.07,RA,,0.11,WeatherDisplay:10.37,2013-12-10 09:04:00,
2013-12-10 04:09:00,41.3,41.0,29.99,West,280,0.0,0.0,99,0.08,RA,,0.12,WeatherDisplay:10.37,2013-12-10 09:09:00,
2013-12-10 04:14:00,41.3,41.0,29.98,West,279,0.0,0.0,99,0.08,RA,,0.12,WeatherDisplay:10.37,2013-12-10 09:14:00,
2013-12-10 04:19:00,41.3,41.0,29.99,West,280,0.0,0.0,99,0.07,,,0.12,WeatherDisplay:10.37,2013-12-10 09:19:00,
2013-12-10 04:24:00,41.3,40.8,29.99,West,280,0.0,0.0,98,0.06,RA,,0.13,WeatherDisplay:10.37,2013-12-10 09:24:00,
2013-12-10 04:29:00,41.4,41.1,29.99,West,280,0.0,0.0,99,0.06,RA,,0.14,WeatherDisplay:10.37,2013-12-10 09:29:00,
2013-12-10 04:34:00,41.4,41.1,29.98,West,279,1.2,0.0,99,0.06,RA,,0.15,WeatherDisplay:10.37,2013-12-10 09:34:00,
2013-12-10 04:39:00,41.4,41.1,29.99,West,280,1.2,1.2,99,0.06,RA,,0.15,WeatherDisplay:10.37,2013-12-10 09:39:00,
2013-12-10 04:44:00,41.3,41.0,29.98,West,268,1.2,1.2,99,0.06,,,0.15,WeatherDisplay:10.37,2013-12-10 09:44:00,
2013-12-10 04:49:00,41.2,40.7,30.00,WNW,287,2.3,2.3,98,0.05,,,0.15,WeatherDisplay:10.37,2013-12-10 09:49:00,
2013-12-10 04:54:00,41.1,40.6,29.99,WNW,284,1.2,0.0,98,0.07,RA,,0.17,WeatherDisplay:10.37,2013-12-10 09:54:00,
2013-12-10 04:59:00,41.0,40.5,29.99,WNW,288,2.3,2.3,98,0.07,RA,,0.17,WeatherDisplay:10.37,2013-12-10 09:59:00,
2013-12-10 05:04:00,40.9,40.4,30.00,West,272,3.5,3.5,98,0.07,RA,,0.18,WeatherDisplay:10.37,2013-12-10 10:04:00,
2013-12-10 05:09:00,40.8,40.3,30.00,WNW,283,3.5,3.5,98,0.06,RA,,0.18,WeatherDisplay:10.37,2013-12-10 10:09:00,
2013-12-10 05:14:00,40.6,40.1,29.99,WNW,300,1.2,1.2,98,0.06,,,0.18,WeatherDisplay:10.37,2013-12-10 10:14:00,
2013-12-10 05:19:00,40.5,40.0,29.99,West,271,3.5,3.5,98,0.07,RA,,0.19,WeatherDisplay:10.37,2013-12-10 10:19:00,
2013-12-10 05:24:00,40.2,39.7,29.99,NW,312,3.5,3.5,98,0.06,RA,,0.19,WeatherDisplay:10.37,2013-12-10 10:24:00,
2013-12-10 05:29:00,39.7,38.9,29.99,WSW,253,4.6,4.6,97,0.05,,,0.19,WeatherDisplay:10.37,2013-12-10 10:29:00,
2013-12-10 05:34:00,39.3,38.5,30.00,WSW,253,2.3,2.3,97,0.04,,,0.19,WeatherDisplay:10.37,2013-12-10 10:34:00,
2013-12-10 05:39:00,39.0,38.2,30.01,WSW,253,3.5,3.5,97,0.05,RA,,0.20,WeatherDisplay:10.37,2013-12-10 10:39:00,
2013-12-10 05:44:00,38.7,37.9,30.00,West,262,4.6,4.6,97,0.05,RA,,0.20,WeatherDisplay:10.37,2013-12-10 10:44:00,
2013-12-10 05:49:00,38.4,37.6,30.01,West,264,2.3,2.3,97,0.06,RA,,0.21,WeatherDisplay:10.37,2013-12-10 10:49:00,
2013-12-10 05:54:00,38.2,37.4,30.01,West,260,3.5,3.5,97,0.04,RA,,0.22,WeatherDisplay:10.37,2013-12-10 10:54:00,
2013-12-10 05:59:00,38.0,37.2,30.00,West,264,1.2,1.2,97,0.05,RA,,0.22,WeatherDisplay:10.37,2013-12-10 10:59:00,
2013-12-10 06:04:00,37.8,37.0,30.00,WSW,252,3.5,3.5,97,0.04,RA,,0.22,WeatherDisplay:10.37,2013-12-10 11:04:00,
2013-12-10 06:09:00,37.7,36.9,30.00,West,276,1.2,1.2,97,0.04,,,0.22,WeatherDisplay:10.37,2013-12-10 11:09:00,
2013-12-10 06:14:00,37.7,36.9,30.01,West,267,3.5,3.5,97,0.04,,,0.22,WeatherDisplay:10.37,2013-12-10 11:14:00,
2013-12-10 06:19:00,37.6,36.8,30.00,WNW,302,1.2,0.0,97,0.03,,,0.22,WeatherDisplay:10.37,2013-12-10 11:19:00,
2013-12-10 06:24:00,37.6,36.8,30.00,WNW,300,0.0,0.3,97,0.04,RA,,0.23,WeatherDisplay:10.37,2013-12-10 11:24:00,
2013-12-10 06:29:00,37.4,36.6,30.01,WNW,300,1.2,1.2,97,0.04,RA,,0.23,WeatherDisplay:10.37,2013-12-10 11:29:00,
2013-12-10 06:34:00,37.3,36.5,30.00,WNW,298,1.2,1.2,97,0.04,,,0.23,WeatherDisplay:10.37,2013-12-10 11:34:00,
2013-12-10 06:39:00,37.2,36.4,29.99,WNW,298,1.2,0.0,97,0.03,,,0.23,WeatherDisplay:10.37,2013-12-10 11:39:00,
2013-12-10 06:44:00,37.1,36.3,30.00,West,260,1.2,1.2,97,0.03,,,0.23,WeatherDisplay:10.37,2013-12-10 11:44:00,
2013-12-10 06:49:00,37.0,36.2,29.99,West,260,0.0,0.0,97,0.02,,,0.23,WeatherDisplay:10.37,2013-12-10 11:49:00,
2013-12-10 06:54:00,37.0,36.2,30.01,West,262,1.2,1.2,97,0.02,,,0.23,WeatherDisplay:10.37,2013-12-10 11:54:00,
2013-12-10 06:59:00,36.9,36.1,30.01,WNW,287,3.5,3.5,97,0.01,,,0.23,WeatherDisplay:10.37,2013-12-10 11:59:00,
2013-12-10 07:04:00,36.9,36.1,29.99,WNW,287,0.0,0.0,97,0.01,CLR,,0.23,WeatherDisplay:10.37,2013-12-10 12:04:00,
2013-12-10 07:09:00,36.8,36.0,29.99,WNW,287,1.2,0.0,97,0.01,CLR,,0.24,WeatherDisplay:10.37,2013-12-10 12:09:00,
2013-12-10 07:14:00,36.7,35.9,30.00,WNW,299,3.5,3.5,97,0.02,RA,,0.24,WeatherDisplay:10.37,2013-12-10 12:14:00,
2013-12-10 07:19:00,36.6,35.8,30.00,WNW,300,2.3,2.3,97,0.02,RA,,0.24,WeatherDisplay:10.37,2013-12-10 12:19:00,
2013-12-10 07:24:00,36.5,35.7,30.00,WNW,299,2.3,2.3,97,0.01,CLR,,0.24,WeatherDisplay:10.37,2013-12-10 12:24:00,
2013-12-10 07:29:00,36.4,35.6,30.00,West,263,1.2,1.2,97,0.01,CLR,,0.24,WeatherDisplay:10.37,2013-12-10 12:29:00,
2013-12-10 07:34:00,36.3,35.5,30.00,WSW,255,2.3,2.3,97,0.01,CLR,,0.24,WeatherDisplay:10.37,2013-12-10 12:34:00,
2013-12-10 07:40:00,36.1,35.3,30.00,West,264,2.3,2.3,97,0.01,CLR,,0.24,WeatherDisplay:10.37,2013-12-10 12:40:00,
2013-12-10 07:45:00,36.0,35.2,30.00,West,270,0.0,2.0,97,0.00,CLR,,0.24,WeatherDisplay:10.37,2013-12-10 12:45:00,
2013-12-10 07:50:00,35.9,35.1,30.00,WNW,290,2.3,2.3,97,0.01,CLR,,0.24,WeatherDisplay:10.37,2013-12-10 12:50:00,
2013-12-10 07:55:00,36.0,35.2,30.01,WNW,295,0.0,3.0,97,0.00,CLR,,0.24,WeatherDisplay:10.37,2013-12-10 12:55:00,
2013-12-10 07:59:00,36.1,35.3,30.01,WNW,293,2.3,2.3,97,0.01,CLR,,0.24,WeatherDisplay:10.37,2013-12-10 12:59:00,
2013-12-10 08:05:00,36.1,35.3,30.01,West,278,2.3,2.3,97,0.01,CLR,,0.24,WeatherDisplay:10.37,2013-12-10 13:05:00,
2013-12-10 08:10:00,36.0,35.2,30.00,WNW,291,0.0,2.0,97,0.00,CLR,,0.24,WeatherDisplay:10.37,2013-12-10 13:10:00,
2013-12-10 08:15:00,36.0,35.2,30.00,WNW,289,1.0,3.0,97,0.00,CLR,,0.24,WeatherDisplay:10.37,2013-12-10 13:15:00,
2013-12-10 08:20:00,35.8,35.0,30.01,West,262,2.3,2.3,97,0.00,CLR,,0.24,WeatherDisplay:10.37,2013-12-10 13:20:00,
2013-12-10 08:25:00,35.7,34.9,30.00,West,261,0.0,3.0,97,0.00,RA,,0.25,WeatherDisplay:10.37,2013-12-10 13:25:00,
2013-12-10 08:30:00,35.6,34.8,30.01,West,262,1.0,4.0,97,0.00,RA,,0.25,WeatherDisplay:10.37,2013-12-10 13:30:00,
2013-12-10 08:35:00,35.5,34.7,30.01,South,181,3.5,3.5,97,0.01,CLR,,0.25,WeatherDisplay:10.37,2013-12-10 13:35:00,
2013-12-10 08:40:00,35.5,34.7,30.02,WNW,282,3.0,3.0,97,0.01,CLR,,0.25,WeatherDisplay:10.37,2013-12-10 13:40:00,
2013-12-10 08:45:00,35.3,34.5,30.02,WSW,250,5.8,5.8,97,0.01,CLR,,0.25,WeatherDisplay:10.37,2013-12-10 13:45:00,
2013-12-10 08:50:00,35.2,34.2,30.03,NW,305,4.0,4.0,96,0.01,CLR,,0.25,WeatherDisplay:10.37,2013-12-10 13:50:00,
2013-12-10 08:55:00,35.3,34.5,30.03,WNW,282,2.0,8.0,97,0.00,CLR,,0.25,WeatherDisplay:10.37,2013-12-10 13:55:00,
2013-12-10 09:00:00,35.1,34.1,30.03,NW,316,4.6,4.7,96,0.01,CLR,,0.25,WeatherDisplay:10.37,2013-12-10 14:00:00,
2013-12-10 09:05:00,35.0,34.0,30.04,WSW,255,8.0,8.0,96,0.01,CLR,,0.25,WeatherDisplay:10.37,2013-12-10 14:05:00,
2013-12-10 09:10:00,34.8,33.8,30.04,WSW,253,3.0,9.0,96,0.00,CLR,,0.25,WeatherDisplay:10.37,2013-12-10 14:10:00,
2013-12-10 09:15:00,34.8,33.8,30.04,WSW,251,3.0,3.0,96,0.01,CLR,,0.25,WeatherDisplay:10.37,2013-12-10 14:15:00,
2013-12-10 09:20:00,34.8,33.8,30.05,WSW,256,2.3,2.3,96,0.01,CLR,,0.25,WeatherDisplay:10.37,2013-12-10 14:20:00,
2013-12-10 09:25:00,34.8,33.8,30.06,West,265,2.0,6.0,96,0.00,CLR,,0.25,WeatherDisplay:10.37,2013-12-10 14:25:00,
2013-12-10 09:30:00,34.9,33.9,30.06,NW,313,3.5,3.6,96,0.00,CLR,,0.25,WeatherDisplay:10.37,2013-12-10 14:30:00,
2013-12-10 09:35:00,34.9,33.9,30.06,West,278,1.0,6.0,96,0.00,CLR,,0.25,WeatherDisplay:10.37,2013-12-10 14:35:00,
2013-12-10 09:39:00,35.0,34.0,30.07,WSW,237,3.0,3.0,96,0.00,CLR,,0.25,WeatherDisplay:10.37,2013-12-10 14:39:00,
2013-12-10 09:45:00,35.0,33.7,30.07,WNW,288,5.8,5.8,95,0.00,CLR,,0.25,WeatherDisplay:10.37,2013-12-10 14:45:00,
2013-12-10 09:49:00,34.9,33.6,30.08,SW,232,5.8,5.8,95,0.00,CLR,,0.25,WeatherDisplay:10.37,2013-12-10 14:49:00,
2013-12-10 09:55:00,35.0,33.7,30.08,WSW,255,5.8,5.8,95,0.00,CLR,,0.25,WeatherDisplay:10.37,2013-12-10 14:55:00,
2013-12-10 10:00:00,35.0,33.7,30.09,SW,235,6.0,6.0,95,0.00,CLR,,0.25,WeatherDisplay:10.37,2013-12-10 15:00:00,
2013-12-10 10:05:00,35.0,33.7,30.09,WSW,250,3.0,9.0,95,0.00,CLR,,0.25,WeatherDisplay:10.37,2013-12-10 15:05:00,
2013-12-10 10:10:00,35.1,33.8,30.10,WSW,245,8.1,8.1,95,0.00,CLR,,0.25,WeatherDisplay:10.37,2013-12-10 15:10:00,
2013-12-10 10:15:00,34.9,33.3,30.11,West,279,5.0,10.0,94,0.00,CLR,,0.25,WeatherDisplay:10.37,2013-12-10 15:15:00,
2013-12-10 10:20:00,34.6,33.1,30.11,West,274,9.2,9.2,94,0.00,CLR,,0.25,WeatherDisplay:10.37,2013-12-10 15:20:00,
2013-12-10 10:25:00,34.6,33.3,30.12,West,265,4.6,4.6,95,0.00,CLR,,0.25,WeatherDisplay:10.37,2013-12-10 15:25:00,
2013-12-10 10:30:00,34.5,33.2,30.12,NW,319,12.7,12.7,95,0.00,CLR,,0.25,WeatherDisplay:10.37,2013-12-10 15:30:00,
2013-12-10 10:35:00,34.5,33.2,30.12,NW,311,7.0,7.0,95,0.00,CLR,,0.25,WeatherDisplay:10.37,2013-12-10 15:35:00,
2013-12-10 10:40:00,34.4,33.1,30.12,NW,313,9.2,9.2,95,0.00,CLR,,0.25,WeatherDisplay:10.37,2013-12-10 15:40:00,
2013-12-10 10:45:00,34.4,33.1,30.13,WSW,253,5.8,5.8,95,0.00,CLR,,0.25,WeatherDisplay:10.37,2013-12-10 15:45:00,
2013-12-10 10:50:00,34.3,33.0,30.14,WNW,286,11.5,11.5,95,0.00,CLR,,0.25,WeatherDisplay:10.37,2013-12-10 15:50:00,
2013-12-10 10:55:00,34.2,32.7,30.14,SW,224,10.4,10.4,94,0.00,CLR,,0.25,WeatherDisplay:10.37,2013-12-10 15:55:00,
2013-12-10 11:00:00,34.0,32.5,30.14,SW,232,9.2,9.2,94,0.00,CLR,,0.25,WeatherDisplay:10.37,2013-12-10 16:00:00,
2013-12-10 11:05:00,33.9,32.1,30.15,West,271,9.2,9.2,93,0.00,CLR,,0.25,WeatherDisplay:10.37,2013-12-10 16:05:00,
2013-12-10 11:10:00,33.8,32.0,30.16,NW,310,4.6,4.6,93,0.00,CLR,,0.25,WeatherDisplay:10.37,2013-12-10 16:10:00,
2013-12-10 11:15:00,33.7,31.6,30.16,WNW,302,8.1,8.1,92,0.00,CLR,,0.25,WeatherDisplay:10.37,2013-12-10 16:15:00,
2013-12-10 11:20:00,33.6,31.5,30.16,NW,312,8.1,8.1,92,0.00,CLR,,0.25,WeatherDisplay:10.37,2013-12-10 16:20:00,
2013-12-10 11:25:00,33.5,31.4,30.17,NW,324,12.7,12.7,92,0.00,CLR,,0.25,WeatherDisplay:10.37,2013-12-10 16:25:00,
2013-12-10 11:30:00,33.3,31.2,30.18,WSW,243,11.5,11.5,92,0.00,CLR,,0.25,WeatherDisplay:10.37,2013-12-10 16:30:00,
2013-12-10 11:35:00,33.3,31.0,30.18,West,279,11.5,11.5,91,0.00,CLR,,0.25,WeatherDisplay:10.37,2013-12-10 16:35:00,
2013-12-10 11:40:00,33.2,30.6,30.19,West,269,15.0,15.0,90,0.00,CLR,,0.25,WeatherDisplay:10.37,2013-12-10 16:40:00,
2013-12-10 11:45:00,32.9,30.3,30.19,NW,305,8.1,8.1,90,0.00,CLR,,0.25,WeatherDisplay:10.37,2013-12-10 16:45:00,
2013-12-10 11:50:00,32.8,30.2,30.19,WSW,254,6.9,6.9,90,0.00,CLR,,0.25,WeatherDisplay:10.37,2013-12-10 16:50:00,
2013-12-10 11:55:00,32.7,30.1,30.19,NW,305,6.0,6.0,90,0.00,CLR,,0.25,WeatherDisplay:10.37,2013-12-10 16:55:00,
2013-12-10 12:00:00,32.6,30.0,30.18,WSW,248,4.6,4.6,90,0.00,CLR,,0.25,WeatherDisplay:10.37,2013-12-10 17:00:00,
2013-12-10 12:05:00,32.8,30.7,30.18,WNW,289,2.3,2.3,92,0.00,CLR,,0.25,WeatherDisplay:10.37,2013-12-10 17:05:00,
2013-12-10 12:10:00,32.9,30.6,30.18,NW,305,3.0,3.0,91,0.00,CLR,,0.25,WeatherDisplay:10.37,2013-12-10 17:10:00,
2013-12-10 12:15:00,32.7,29.8,30.18,WSW,248,9.2,9.2,89,0.00,CLR,,0.25,WeatherDisplay:10.37,2013-12-10 17:15:00,
2013-12-10 12:20:00,32.6,30.0,30.19,West,260,4.6,4.6,90,0.00,CLR,,0.25,WeatherDisplay:10.37,2013-12-10 17:20:00,
2013-12-10 12:25:00,32.5,29.9,30.19,WSW,241,8.1,8.1,90,0.00,CLR,,0.25,WeatherDisplay:10.37,2013-12-10 17:25:00,
2013-12-10 12:30:00,32.4,29.5,30.19,WSW,237,8.1,8.1,89,0.00,CLR,,0.25,WeatherDisplay:10.37,2013-12-10 17:30:00,
2013-12-10 12:35:00,32.4,29.8,30.19,WNW,302,8.0,8.0,90,0.00,CLR,,0.25,WeatherDisplay:10.37,2013-12-10 17:35:00,
2013-12-10 12:40:00,32.4,29.5,30.19,NW,316,6.9,6.9,89,0.00,CLR,,0.25,WeatherDisplay:10.37,2013-12-10 17:40:00,
2013-12-10 12:45:00,32.3,29.4,30.18,NW,317,7.0,7.0,89,0.00,CLR,,0.25,WeatherDisplay:10.37,2013-12-10 17:45:00,
2013-12-10 12:50:00,32.1,29.2,30.18,NW,310,9.2,9.2,89,0.00,CLR,,0.25,WeatherDisplay:10.37,2013-12-10 17:50:00,
2013-12-10 12:55:00,32.3,29.4,30.18,NW,324,6.0,6.0,89,0.00,CLR,,0.25,WeatherDisplay:10.37,2013-12-10 17:55:00,
2013-12-10 13:00:00,32.4,29.5,30.17,West,265,8.0,8.0,89,0.00,CLR,,0.25,WeatherDisplay:10.37,2013-12-10 18:00:00,
2013-12-10 13:05:00,32.5,29.1,30.18,WNW,293,11.5,11.5,87,0.00,CLR,,0.25,WeatherDisplay:10.37,2013-12-10 18:05:00,
2013-12-10 13:10:00,32.6,29.2,30.18,WNW,303,11.5,11.5,87,0.00,CLR,,0.25,WeatherDisplay:10.37,2013-12-10 18:10:00,
2013-12-10 13:15:00,33.1,29.7,30.18,West,271,9.2,9.2,87,0.00,CLR,,0.25,WeatherDisplay:10.37,2013-12-10 18:15:00,
2013-12-10 13:20:00,33.7,29.7,30.18,West,265,15.0,15.0,85,0.00,CLR,,0.25,WeatherDisplay:10.37,2013-12-10 18:20:00,
2013-12-10 13:25:00,34.1,30.4,30.18,West,265,6.9,6.9,86,0.00,CLR,,0.25,WeatherDisplay:10.37,2013-12-10 18:25:00,
2013-12-10 13:30:00,34.5,30.2,30.18,West,274,11.5,11.5,84,0.00,CLR,,0.25,WeatherDisplay:10.37,2013-12-10 18:30:00,
2013-12-10 13:35:00,35.0,30.7,30.17,West,280,8.1,8.1,84,0.00,CLR,,0.25,WeatherDisplay:10.37,2013-12-10 18:35:00,
2013-12-10 13:40:00,35.3,30.9,30.17,WNW,295,9.2,9.2,84,0.00,CLR,,0.25,WeatherDisplay:10.37,2013-12-10 18:40:00,
2013-12-10 13:45:00,35.5,30.5,30.18,SW,236,12.7,12.7,82,0.00,CLR,,0.25,WeatherDisplay:10.37,2013-12-10 18:45:00,
2013-12-10 13:50:00,35.3,30.1,30.18,West,264,11.5,11.5,81,0.00,CLR,,0.25,WeatherDisplay:10.37,2013-12-10 18:50:00,
2013-12-10 13:55:00,34.6,29.1,30.19,West,262,10.4,10.4,80,0.00,CLR,,0.25,WeatherDisplay:10.37,2013-12-10 18:55:00,
2013-12-10 14:00:00,34.0,28.8,30.19,West,270,11.0,11.0,81,0.00,CLR,,0.25,WeatherDisplay:10.37,2013-12-10 19:00:00,
2013-12-10 14:05:00,33.8,28.0,30.20,WNW,296,12.0,12.0,79,0.00,CLR,,0.25,WeatherDisplay:10.37,2013-12-10 19:05:00,
2013-12-10 14:10:00,33.5,26.7,30.20,West,280,12.7,12.7,76,0.00,CLR,,0.25,WeatherDisplay:10.37,2013-12-10 19:10:00,
2013-12-10 14:15:00,33.2,26.5,30.20,WSW,248,10.4,10.4,76,0.00,CLR,,0.25,WeatherDisplay:10.37,2013-12-10 19:15:00,
2013-12-10 14:20:00,33.2,27.1,30.20,West,265,5.8,5.8,78,0.00,CLR,,0.25,WeatherDisplay:10.37,2013-12-10 19:20:00,
2013-12-10 14:25:00,33.2,27.1,30.20,WNW,295,4.6,4.6,78,0.00,CLR,,0.25,WeatherDisplay:10.37,2013-12-10 19:25:00,
2013-12-10 14:30:00,33.0,26.6,30.20,West,271,11.5,11.5,77,0.00,CLR,,0.25,WeatherDisplay:10.37,2013-12-10 19:30:00,
2013-12-10 14:35:00,33.7,27.6,30.20,WNW,300,8.0,8.0,78,0.00,CLR,,0.25,WeatherDisplay:10.37,2013-12-10 19:35:00,
2013-12-10 14:40:00,34.2,28.4,30.21,NW,312,5.8,5.8,79,0.00,CLR,,0.25,WeatherDisplay:10.37,2013-12-10 19:40:00,
2013-12-10 14:45:00,34.5,28.0,30.21,WNW,295,6.9,6.9,77,0.00,CLR,,0.25,WeatherDisplay:10.37,2013-12-10 19:45:00,
2013-12-10 14:50:00,34.7,28.2,30.21,WNW,289,5.8,5.8,77,0.00,CLR,,0.25,WeatherDisplay:10.37,2013-12-10 19:50:00,
2013-12-10 14:55:00,35.5,28.4,30.21,WNW,299,9.2,9.2,75,0.00,CLR,,0.25,WeatherDisplay:10.37,2013-12-10 19:55:00,
2013-12-10 15:00:00,35.6,28.8,30.21,WNW,300,7.0,7.0,76,0.00,CLR,,0.25,WeatherDisplay:10.37,2013-12-10 20:00:00,
2013-12-10 15:05:00,36.3,29.8,30.21,NW,309,7.0,7.0,77,0.00,CLR,,0.25,WeatherDisplay:10.37,2013-12-10 20:05:00,
2013-12-10 15:10:00,36.8,29.9,30.21,WSW,243,6.9,6.9,76,0.00,CLR,,0.25,WeatherDisplay:10.37,2013-12-10 20:10:00,
2013-12-10 15:15:00,36.9,28.7,30.21,WNW,290,8.1,8.1,72,0.00,CLR,,0.25,WeatherDisplay:10.37,2013-12-10 20:15:00,
2013-12-10 15:20:00,36.9,28.7,30.21,WSW,243,9.2,9.2,72,0.00,CLR,,0.25,WeatherDisplay:10.37,2013-12-10 20:20:00,
2013-12-10 15:25:00,36.9,28.4,30.21,West,267,11.5,11.5,71,0.00,CLR,,0.25,WeatherDisplay:10.37,2013-12-10 20:25:00,
2013-12-10 15:31:00,36.9,28.4,30.21,West,274,6.9,6.9,71,0.00,CLR,,0.25,WeatherDisplay:10.37,2013-12-10 20:31:00,
2013-12-10 15:36:00,36.9,29.1,30.22,NW,312,10.0,10.0,73,0.00,CLR,,0.25,WeatherDisplay:10.37,2013-12-10 20:36:00,
2013-12-10 15:41:00,36.2,27.7,30.22,WNW,290,7.0,8.2,71,0.00,CLR,,0.25,WeatherDisplay:10.37,2013-12-10 20:41:00,
2013-12-10 15:46:00,35.8,28.3,30.22,NW,323,5.8,5.8,74,0.00,CLR,,0.25,WeatherDisplay:10.37,2013-12-10 20:46:00,
2013-12-10 15:51:00,35.8,28.0,30.23,SW,231,12.7,12.7,73,0.00,CLR,,0.25,WeatherDisplay:10.37,2013-12-10 20:51:00,
2013-12-10 15:56:00,35.7,27.9,30.23,WSW,244,9.2,9.2,73,0.00,CLR,,0.25,WeatherDisplay:10.37,2013-12-10 20:56:00,
2013-12-10 16:01:00,35.4,26.9,30.23,WNW,298,12.7,12.7,71,0.00,CLR,,0.25,WeatherDisplay:10.37,2013-12-10 21:01:00,
2013-12-10 16:06:00,35.0,27.5,30.24,WNW,296,6.9,6.9,74,0.00,CLR,,0.25,WeatherDisplay:10.37,2013-12-10 21:06:00,
2013-12-10 16:11:00,34.6,27.2,30.24,West,271,5.8,5.8,74,0.00,CLR,,0.25,WeatherDisplay:10.37,2013-12-10 21:11:00,
2013-12-10 16:16:00,34.4,27.3,30.24,NW,324,7.0,7.0,75,0.00,CLR,,0.25,WeatherDisplay:10.37,2013-12-10 21:16:00,
2013-12-10 16:21:00,34.7,27.3,30.25,WNW,300,4.6,4.6,74,0.00,CLR,,0.25,WeatherDisplay:10.37,2013-12-10 21:21:00,
2013-12-10 16:26:00,34.7,26.9,30.25,WNW,297,3.5,3.5,73,0.00,CLR,,0.25,WeatherDisplay:10.37,2013-12-10 21:26:00,
2013-12-10 16:31:00,34.7,27.3,30.25,WSW,248,4.6,4.6,74,0.00,CLR,,0.25,WeatherDisplay:10.37,2013-12-10 21:31:00,
2013-12-10 16:36:00,34.7,26.9,30.25,NW,309,3.5,3.5,73,0.00,CLR,,0.25,WeatherDisplay:10.37,2013-12-10 21:36:00,
2013-12-10 16:41:00,34.4,27.0,30.25,WNW,293,3.5,3.5,74,0.00,CLR,,0.25,WeatherDisplay:10.37,2013-12-10 21:41:00,
2013-12-10 16:46:00,34.3,26.5,30.25,West,276,4.6,4.6,73,0.00,CLR,,0.25,WeatherDisplay:10.37,2013-12-10 21:46:00,
2013-12-10 16:51:00,34.0,26.3,30.26,West,272,6.0,6.0,73,0.00,CLR,,0.25,WeatherDisplay:10.37,2013-12-10 21:51:00,
2013-12-10 16:56:00,33.9,26.5,30.26,WNW,290,3.5,3.5,74,0.00,CLR,,0.25,WeatherDisplay:10.37,2013-12-10 21:56:00,
2013-12-10 17:01:00,33.7,26.0,30.26,West,281,2.3,2.3,73,0.00,CLR,,0.25,WeatherDisplay:10.37,2013-12-10 22:01:00,
2013-12-10 17:06:00,33.3,25.6,30.26,West,278,3.5,3.5,73,0.00,CLR,,0.25,WeatherDisplay:10.37,2013-12-10 22:06:00,
2013-12-10 17:11:00,32.8,25.4,30.26,West,280,2.3,2.3,74,0.00,CLR,,0.25,WeatherDisplay:10.37,2013-12-10 22:11:00,
2013-12-10 17:16:00,32.3,24.9,30.26,West,265,3.5,3.5,74,0.00,CLR,,0.25,WeatherDisplay:10.37,2013-12-10 22:16:00,
2013-12-10 17:21:00,32.0,25.0,30.27,NW,306,3.5,3.5,75,0.00,CLR,,0.25,WeatherDisplay:10.37,2013-12-10 22:21:00,
2013-12-10 17:26:00,31.9,24.6,30.27,WNW,291,2.3,2.3,74,0.00,CLR,,0.25,WeatherDisplay:10.37,2013-12-10 22:26:00,
2013-12-10 17:31:00,31.6,24.6,30.27,WNW,298,3.5,3.5,75,0.00,CLR,,0.25,WeatherDisplay:10.37,2013-12-10 22:31:00,
2013-12-10 17:36:00,31.3,24.6,30.27,West,275,1.2,1.2,76,0.00,CLR,,0.25,WeatherDisplay:10.37,2013-12-10 22:36:00,
2013-12-10 17:41:00,31.0,24.3,30.27,West,262,0.0,0.1,76,0.00,CLR,,0.25,WeatherDisplay:10.37,2013-12-10 22:41:00,
2013-12-10 17:46:00,30.6,24.6,30.28,West,263,0.0,0.0,78,0.00,CLR,,0.25,WeatherDisplay:10.37,2013-12-10 22:46:00,
2013-12-10 17:51:00,30.0,24.6,30.28,West,263,0.0,0.0,80,0.00,CLR,,0.25,WeatherDisplay:10.37,2013-12-10 22:51:00,
2013-12-10 17:56:00,29.4,24.6,30.28,West,263,0.0,0.0,82,0.00,CLR,,0.25,WeatherDisplay:10.37,2013-12-10 22:56:00,
2013-12-10 18:01:00,28.8,24.3,30.29,West,262,0.0,0.0,83,0.00,CLR,,0.25,WeatherDisplay:10.37,2013-12-10 23:01:00,
2013-12-10 18:06:00,28.3,24.1,30.29,West,262,0.0,0.0,84,0.00,CLR,,0.25,WeatherDisplay:10.37,2013-12-10 23:06:00,
2013-12-10 18:11:00,28.0,24.4,30.29,West,262,0.0,0.0,86,0.00,CLR,,0.25,WeatherDisplay:10.37,2013-12-10 23:11:00,
2013-12-10 18:16:00,28.0,24.6,30.29,West,264,3.0,3.0,87,0.00,CLR,,0.25,WeatherDisplay:10.37,2013-12-10 23:16:00,
2013-12-10 18:21:00,28.3,24.6,30.30,West,262,3.5,3.5,86,0.00,CLR,,0.25,WeatherDisplay:10.37,2013-12-10 23:21:00,
2013-12-10 18:26:00,28.6,24.7,30.30,West,268,1.2,1.2,85,0.00,CLR,,0.25,WeatherDisplay:10.37,2013-12-10 23:26:00,
2013-12-10 18:31:00,28.7,24.8,30.30,WSW,257,3.5,3.5,85,0.00,CLR,,0.25,WeatherDisplay:10.37,2013-12-10 23:31:00,
2013-12-10 18:36:00,28.8,24.6,30.30,West,260,3.0,3.0,84,0.00,CLR,,0.25,WeatherDisplay:10.37,2013-12-10 23:36:00,
2013-12-10 18:41:00,28.8,24.6,30.31,WNW,283,2.3,2.3,84,0.00,CLR,,0.25,WeatherDisplay:10.37,2013-12-10 23:41:00,
2013-12-10 18:46:00,28.8,24.6,30.31,WNW,288,4.6,4.6,84,0.00,CLR,,0.25,WeatherDisplay:10.37,2013-12-10 23:46:00,
2013-12-10 18:51:00,28.8,24.3,30.31,WSW,246,3.5,3.5,83,0.00,CLR,,0.25,WeatherDisplay:10.37,2013-12-10 23:51:00,
2013-12-10 18:56:00,28.9,24.4,30.31,WSW,253,3.5,3.5,83,0.00,CLR,,0.25,WeatherDisplay:10.37,2013-12-10 23:56:00,
2013-12-10 19:01:00,28.9,24.4,30.32,SW,214,4.6,4.6,83,0.00,CLR,,0.25,WeatherDisplay:10.37,2013-12-11 00:01:00,
2013-12-10 19:06:00,29.0,24.2,30.32,SW,224,6.9,6.9,82,0.00,CLR,,0.25,WeatherDisplay:10.37,2013-12-11 00:06:00,
2013-12-10 19:11:00,29.0,24.2,30.32,WSW,250,2.3,2.3,82,0.00,CLR,,0.25,WeatherDisplay:10.37,2013-12-11 00:11:00,
2013-12-10 19:16:00,28.9,24.1,30.32,West,269,3.5,3.5,82,0.00,CLR,,0.25,WeatherDisplay:10.37,2013-12-11 00:16:00,
2013-12-10 19:21:00,28.7,23.9,30.32,West,267,4.6,4.6,82,0.00,CLR,,0.25,WeatherDisplay:10.37,2013-12-11 00:21:00,
2013-12-10 19:26:00,28.6,24.1,30.32,West,260,4.6,4.6,83,0.00,CLR,,0.25,WeatherDisplay:10.37,2013-12-11 00:26:00,
2013-12-10 19:31:00,28.5,24.0,30.32,WSW,243,3.0,3.0,83,0.00,CLR,,0.25,WeatherDisplay:10.37,2013-12-11 00:31:00,
2013-12-10 19:36:00,28.3,23.8,30.33,West,273,1.2,1.2,83,0.00,CLR,,0.25,WeatherDisplay:10.37,2013-12-11 00:36:00,
2013-12-10 19:41:00,28.2,23.7,30.33,WSW,247,3.5,3.5,83,0.00,CLR,,0.25,WeatherDisplay:10.37,2013-12-11 00:41:00,
2013-12-10 19:46:00,28.0,23.5,30.33,WSW,250,4.6,4.6,83,0.00,CLR,,0.25,WeatherDisplay:10.37,2013-12-11 00:46:00,
2013-12-10 19:51:00,27.9,23.7,30.33,WSW,240,4.6,4.6,84,0.00,CLR,,0.25,WeatherDisplay:10.37,2013-12-11 00:51:00,
2013-12-10 19:56:00,27.8,23.6,30.34,West,268,3.5,3.5,84,0.00,CLR,,0.25,WeatherDisplay:10.37,2013-12-11 00:56:00,
2013-12-10 20:01:00,27.7,23.2,30.34,WSW,255,3.5,3.5,83,0.00,CLR,,0.25,WeatherDisplay:10.37,2013-12-11 01:01:00,
2013-12-10 20:06:00,27.7,23.2,30.35,West,276,3.5,3.5,83,0.00,CLR,,0.25,WeatherDisplay:10.37,2013-12-11 01:06:00,
2013-12-10 20:11:00,27.7,23.2,30.35,WSW,241,6.0,6.0,83,0.00,CLR,,0.25,WeatherDisplay:10.37,2013-12-11 01:11:00,
2013-12-10 20:16:00,27.8,23.0,30.35,WSW,250,3.5,3.5,82,0.00,CLR,,0.25,WeatherDisplay:10.37,2013-12-11 01:16:00,
2013-12-10 20:22:00,27.7,22.9,30.35,WNW,298,3.5,3.5,82,0.00,CLR,,0.25,WeatherDisplay:10.37,2013-12-11 01:22:00,
2013-12-10 20:27:00,27.6,22.8,30.35,WSW,253,2.3,2.3,82,0.00,CLR,,0.25,WeatherDisplay:10.37,2013-12-11 01:27:00,
2013-12-10 20:32:00,27.4,22.9,30.35,WSW,252,2.3,2.3,83,0.00,CLR,,0.25,WeatherDisplay:10.37,2013-12-11 01:32:00,
2013-12-10 20:37:00,27.2,22.7,30.36,WSW,250,3.5,3.5,83,0.00,CLR,,0.25,WeatherDisplay:10.37,2013-12-11 01:37:00,
2013-12-10 20:42:00,27.0,22.5,30.36,West,271,2.3,2.3,83,0.00,CLR,,0.25,WeatherDisplay:10.37,2013-12-11 01:42:00,
2013-12-10 20:47:00,26.9,22.4,30.36,West,278,1.2,0.0,83,0.00,CLR,,0.25,WeatherDisplay:10.37,2013-12-11 01:47:00,
2013-12-10 20:52:00,26.8,22.3,30.36,WSW,253,2.3,2.3,83,0.00,CLR,,0.25,WeatherDisplay:10.37,2013-12-11 01:52:00,
2013-12-10 20:57:00,26.7,22.2,30.36,West,281,1.2,1.2,83,0.00,CLR,,0.25,WeatherDisplay:10.37,2013-12-11 01:57:00,
2013-12-10 21:02:00,26.6,22.1,30.37,West,260,4.6,4.6,83,0.00,CLR,,0.25,WeatherDisplay:10.37,2013-12-11 02:02:00,
2013-12-10 21:07:00,26.6,22.1,30.37,West,275,1.2,1.2,83,0.00,CLR,,0.25,WeatherDisplay:10.37,2013-12-11 02:07:00,
2013-12-10 21:12:00,26.6,21.8,30.37,WSW,237,4.6,4.6,82,0.00,CLR,,0.25,WeatherDisplay:10.37,2013-12-11 02:12:00,
2013-12-10 21:17:00,26.8,22.0,30.37,WSW,238,8.1,8.1,82,0.00,CLR,,0.25,WeatherDisplay:10.37,2013-12-11 02:17:00,
2013-12-10 21:22:00,27.0,22.2,30.37,West,267,2.3,2.3,82,0.00,CLR,,0.25,WeatherDisplay:10.37,2013-12-11 02:22:00,
2013-12-10 21:27:00,27.1,22.0,30.38,WSW,255,3.5,3.5,81,0.00,CLR,,0.25,WeatherDisplay:10.37,2013-12-11 02:27:00,
2013-12-10 21:32:00,27.3,21.9,30.38,WSW,258,4.6,4.6,80,0.00,CLR,,0.25,WeatherDisplay:10.37,2013-12-11 02:32:00,
2013-12-10 21:37:00,27.4,22.0,30.38,West,264,3.5,3.5,80,0.00,CLR,,0.25,WeatherDisplay:10.37,2013-12-11 02:37:00,
2013-12-10 21:42:00,27.5,21.8,30.38,West,266,3.5,3.5,79,0.00,CLR,,0.25,WeatherDisplay:10.37,2013-12-11 02:42:00,
2013-12-10 21:47:00,27.5,21.8,30.37,WSW,255,3.5,3.5,79,0.00,CLR,,0.25,WeatherDisplay:10.37,2013-12-11 02:47:00,
2013-12-10 21:52:00,27.5,21.8,30.38,WSW,253,5.8,5.8,79,0.00,CLR,,0.25,WeatherDisplay:10.37,2013-12-11 02:52:00,
2013-12-10 21:57:00,27.4,22.0,30.38,WSW,254,4.6,4.6,80,0.00,CLR,,0.25,WeatherDisplay:10.37,2013-12-11 02:57:00,
2013-12-10 22:02:00,27.4,22.0,30.38,WSW,240,3.5,3.5,80,0.00,CLR,,0.25,WeatherDisplay:10.37,2013-12-11 03:02:00,
2013-12-10 22:07:00,27.3,21.9,30.38,SW,236,6.9,6.9,80,0.00,CLR,,0.25,WeatherDisplay:10.37,2013-12-11 03:07:00,
2013-12-10 22:12:00,27.2,21.8,30.38,WSW,257,5.8,5.8,80,0.00,CLR,,0.25,WeatherDisplay:10.37,2013-12-11 03:12:00,
2013-12-10 22:17:00,27.2,21.5,30.38,WSW,254,5.0,5.0,79,0.00,CLR,,0.25,WeatherDisplay:10.37,2013-12-11 03:17:00,
2013-12-10 22:22:00,27.2,21.8,30.38,WSW,258,2.3,2.3,80,0.00,CLR,,0.25,WeatherDisplay:10.37,2013-12-11 03:22:00,
2013-12-10 22:27:00,27.1,21.5,30.38,SW,227,3.5,3.5,79,0.00,CLR,,0.25,WeatherDisplay:10.37,2013-12-11 03:27:00,
2013-12-10 22:32:00,27.1,21.7,30.38,WNW,294,4.6,4.6,80,0.00,CLR,,0.25,WeatherDisplay:10.37,2013-12-11 03:32:00,
2013-12-10 22:37:00,27.0,21.7,30.37,WSW,253,3.5,3.5,80,0.00,CLR,,0.25,WeatherDisplay:10.37,2013-12-11 03:37:00,
2013-12-10 22:42:00,26.9,21.6,30.37,West,260,3.5,3.5,80,0.00,CLR,,0.25,WeatherDisplay:10.37,2013-12-11 03:42:00,
2013-12-10 22:47:00,26.7,21.7,30.37,West,267,2.3,2.3,81,0.00,CLR,,0.25,WeatherDisplay:10.37,2013-12-11 03:47:00,
2013-12-10 22:52:00,26.3,21.6,30.37,West,268,0.0,0.0,82,0.00,CLR,,0.25,WeatherDisplay:10.37,2013-12-11 03:52:00,
2013-12-10 22:57:00,25.9,21.4,30.37,WNW,303,1.2,1.2,83,0.00,CLR,,0.25,WeatherDisplay:10.37,2013-12-11 03:57:00,
2013-12-10 23:02:00,25.6,21.2,30.37,WNW,303,0.0,0.0,83,0.00,CLR,,0.25,WeatherDisplay:10.37,2013-12-11 04:02:00,
2013-12-10 23:07:00,25.2,21.0,30.37,NW,304,0.0,0.0,84,0.00,,,0.25,WeatherDisplay:10.37,2013-12-11 04:07:00,
2013-12-10 23:12:00,24.9,20.8,30.37,WNW,303,0.0,0.0,84,0.00,,,0.25,WeatherDisplay:10.37,2013-12-11 04:12:00,
2013-12-10 23:17:00,24.3,20.4,30.37,NW,304,0.0,0.0,85,0.00,,,0.25,WeatherDisplay:10.37,2013-12-11 04:17:00,
2013-12-10 23:22:00,23.8,19.9,30.37,WNW,303,0.0,0.0,85,0.00,,,0.25,WeatherDisplay:10.37,2013-12-11 04:22:00,
2013-12-10 23:27:00,23.2,19.6,30.37,NW,304,0.0,0.0,86,0.00,,,0.25,WeatherDisplay:10.37,2013-12-11 04:27:00,
2013-12-10 23:32:00,22.9,19.9,30.37,NW,304,1.2,0.0,88,0.00,,,0.25,WeatherDisplay:10.37,2013-12-11 04:32:00,
2013-12-10 23:37:00,22.8,20.0,30.37,NW,304,0.0,0.0,89,0.00,,,0.25,WeatherDisplay:10.37,2013-12-11 04:37:00,
2013-12-10 23:42:00,22.6,19.8,30.37,WNW,303,0.0,0.0,89,0.00,,,0.25,WeatherDisplay:10.37,2013-12-11 04:42:00,
2013-12-10 23:47:00,22.3,19.3,30.37,WNW,303,1.2,0.0,88,0.00,,,0.25,WeatherDisplay:10.37,2013-12-11 04:47:00,
2013-12-10 23:52:00,22.0,19.3,30.37,WNW,303,0.0,0.0,89,0.00,,,0.25,WeatherDisplay:10.37,2013-12-11 04:52:00,
2013-12-10 23:57:00,21.7,19.0,30.38,NW,304,0.0,0.0,89,0.00,,,0.25,WeatherDisplay:10.37,2013-12-11 04:57:00,